When you browse on this site, cookies collect data to enhance your experience and personalize the content and advertising you see.
Visit our Privacy Policy to learn more. By continuing to use the site, you agree to this use of cookies and data.
  • In France
  • List of Countries
  • For 7 days
  • Water Temperature
  • Satellite Maps
  • Weather Map
  • Weather Widgets
  • user-avatar
    Login

    Hourly Weather Shirino

    Today, 23 February, Saturday

    Time Temperature Precipitation Wind Pressure Humidity
    00:00 -14°C° 0 mm 4 mps 755 mmHg 90%
    01:00 -14°C° 0 mm 4 mps 756 mmHg 91%
    02:00 -14°C° 0 mm 4 mps 756 mmHg 91%
    03:00 -15°C° 0 mm 4 mps 757 mmHg 91%
    04:00 -16°C° 0 mm 4 mps 758 mmHg 91%
    05:00 -17°C° 0 mm 4 mps 758 mmHg 92%
    06:00 -17°C° 0 mm 3 mps 759 mmHg 92%
    07:00 -17°C° 0 mm 3 mps 759 mmHg 92%
    08:00 -17°C° 0 mm 3 mps 760 mmHg 92%
    09:00 -17°C° 0 mm 3 mps 760 mmHg 92%
    10:00 -16°C° 0 mm 3 mps 761 mmHg 90%
    11:00 -14°C° 0 mm 3 mps 761 mmHg 89%
    12:00 -13°C° 0 mm 3 mps 761 mmHg 87%
    13:00 -13°C° 0 mm 3 mps 761 mmHg 86%
    14:00 -12°C° 0 mm 3 mps 761 mmHg 85%
    15:00 -10°C° 0 mm 3 mps 761 mmHg 85%
    16:00 -12°C° 0 mm 3 mps 761 mmHg 87%
    17:00 -13°C° 0 mm 2 mps 761 mmHg 90%
    18:00 -14°C° 0 mm 2 mps 761 mmHg 92%
    19:00 -14°C° 0 mm 2 mps 761 mmHg 92%
    20:00 -15°C° 0 mm 2 mps 761 mmHg 92%
    21:00 -15°C° 0 mm 2 mps 760 mmHg 92%
    22:00 -15°C° 0 mm 2 mps 760 mmHg 92%
    23:00 -16°C° 0 mm 3 mps 760 mmHg 92%

    Tomorrow, 24 February, Sunday

    Time Temperature Precipitation Wind Pressure Humidity
    00:00 -16°C° 0 mm 3 mps 760 mmHg 92%
    01:00 -16°C° 0 mm 3 mps 759 mmHg 92%
    02:00 -16°C° 0 mm 3 mps 759 mmHg 91%
    03:00 -16°C° 0 mm 3 mps 759 mmHg 90%
    04:00 -15°C° 0 mm 3 mps 758 mmHg 90%
    05:00 -15°C° 0 mm 3 mps 758 mmHg 91%
    06:00 -15°C° 0 mm 3 mps 758 mmHg 91%
    07:00 -14°C° 0 mm 3 mps 758 mmHg 92%
    08:00 -13°C° 0 mm 3 mps 758 mmHg 94%
    09:00 -12°C° 0 mm 3 mps 757 mmHg 95%
    10:00 -11°C° 0 mm 4 mps 757 mmHg 94%
    11:00 -10°C° 0 mm 4 mps 757 mmHg 94%
    12:00 -9°C° 0 mm 4 mps 757 mmHg 93%
    13:00 -8°C° 0 mm 4 mps 757 mmHg 93%
    14:00 -7°C° 0 mm 4 mps 756 mmHg 92%
    15:00 -6°C° 0 mm 3 mps 756 mmHg 91%
    16:00 -6°C° 0 mm 3 mps 756 mmHg 92%
    17:00 -5°C° 0 mm 3 mps 756 mmHg 93%
    18:00 -5°C° 0 mm 3 mps 756 mmHg 94%
    19:00 -5°C° 0 mm 3 mps 755 mmHg 95%
    20:00 -5°C° 0 mm 3 mps 755 mmHg 95%
    21:00 -5°C° 0 mm 3 mps 755 mmHg 95%
    22:00 -4°C° 0 mm 3 mps 754 mmHg 96%
    23:00 -4°C° 0 mm 3 mps 754 mmHg 96%

    Day after tomorrow, 25 February, Monday

    Time Temperature Precipitation Wind Pressure Humidity
    00:00 -2°C° 0 mm 3 mps 754 mmHg 96%
    01:00 -3°C° 0.1 mm 4 mps 753 mmHg 96%
    02:00 -2°C° 0.1 mm 4 mps 752 mmHg 96%
    03:00 -2°C° 0.1 mm 4 mps 752 mmHg 96%
    04:00 -2°C° 0.1 mm 4 mps 751 mmHg 95%
    05:00 -1°C° 0.1 mm 5 mps 750 mmHg 94%
    06:00 -1°C° 0.1 mm 5 mps 749 mmHg 93%
    07:00 -1°C° 0.4 mm 5 mps 748 mmHg 93%
    08:00 -2°C° 0.4 mm 6 mps 747 mmHg 93%
    09:00 -2°C° 0.4 mm 6 mps 747 mmHg 93%
    10:00 -1°C° 0.1 mm 5 mps 746 mmHg 95%
    11:00 -1°C° 0.1 mm 5 mps 745 mmHg 97%
    12:00 -1°C° 0.1 mm 5 mps 745 mmHg 98%
    13:00 -1°C° 0.1 mm 5 mps 744 mmHg 98%
    14:00 -1°C° 0.1 mm 5 mps 744 mmHg 97%
    15:00 -1°C° 0.1 mm 4 mps 744 mmHg 97%
    16:00 -1°C° 0.2 mm 4 mps 743 mmHg 95%
    17:00 -1°C° 0.2 mm 4 mps 743 mmHg 94%
    18:00 -2°C° 0.2 mm 4 mps 743 mmHg 92%
    19:00 -2°C° 0.1 mm 4 mps 743 mmHg 93%
    20:00 -2°C° 0.1 mm 4 mps 742 mmHg 93%
    21:00 -2°C° 0.1 mm 4 mps 742 mmHg 93%
    22:00 -3°C° 0.1 mm 4 mps 742 mmHg 93%
    23:00 -3°C° 0.1 mm 4 mps 741 mmHg 93%

    26 February, Tuesday

    Time Temperature Precipitation Wind Pressure Humidity
    00:00 -3°C° 0.1 mm 4 mps 741 mmHg 93%
    01:00 -3°C° 0 mm 4 mps 741 mmHg 94%
    02:00 -2°C° 0 mm 3 mps 741 mmHg 95%
    03:00 -4°C° 0 mm 3 mps 740 mmHg 95%
    04:00 -4°C° 0 mm 3 mps 740 mmHg 95%
    05:00 -4°C° 0 mm 3 mps 739 mmHg 95%
    06:00 -4°C° 0 mm 4 mps 739 mmHg 95%
    07:00 -3°C° 0.5 mm 4 mps 739 mmHg 94%
    08:00 -3°C° 0.5 mm 4 mps 738 mmHg 94%
    09:00 -2°C° 0.5 mm 5 mps 738 mmHg 94%
    10:00 -2°C° 0.5 mm 5 mps 737 mmHg 93%
    11:00 -3°C° 0.5 mm 6 mps 737 mmHg 93%
    12:00 -3°C° 0.5 mm 6 mps 737 mmHg 92%
    13:00 -3°C° 0.4 mm 6 mps 736 mmHg 92%
    14:00 -3°C° 0.4 mm 6 mps 736 mmHg 91%
    15:00 -3°C° 0.4 mm 6 mps 736 mmHg 91%
    16:00 -2°C° 0.3 mm 5 mps 736 mmHg 92%
    17:00 -2°C° 0.3 mm 5 mps 736 mmHg 92%
    18:00 -3°C° 0.3 mm 4 mps 736 mmHg 93%
    19:00 -3°C° 0.2 mm 4 mps 736 mmHg 93%
    20:00 -2°C° 0.2 mm 4 mps 736 mmHg 93%
    21:00 -2°C° 0.2 mm 4 mps 737 mmHg 93%
    22:00 -2°C° 0.1 mm 4 mps 737 mmHg 93%
    23:00 -2°C° 0.1 mm 5 mps 737 mmHg 93%

    27 February, Wednesday

    Time Temperature Precipitation Wind Pressure Humidity
    00:00 -2°C° 0.1 mm 5 mps 738 mmHg 93%
    01:00 -2°C° 0.1 mm 5 mps 738 mmHg 92%
    02:00 -4°C° 0.1 mm 5 mps 739 mmHg 92%
    03:00 -4°C° 0.1 mm 5 mps 739 mmHg 91%
    04:00 -4°C° 0 mm 5 mps 740 mmHg 92%
    05:00 -4°C° 0 mm 4 mps 740 mmHg 92%
    06:00 -4°C° 0 mm 4 mps 740 mmHg 93%
    07:00 -5°C° 0 mm 4 mps 741 mmHg 94%
    08:00 -6°C° 0 mm 3 mps 741 mmHg 95%
    09:00 -6°C° 0 mm 3 mps 741 mmHg 96%
    10:00 -4°C° 0.1 mm 2 mps 741 mmHg 96%
    11:00 -3°C° 0.1 mm 2 mps 741 mmHg 95%
    12:00 -3°C° 0.1 mm 2 mps 741 mmHg 95%
    13:00 -2°C° 0.1 mm 2 mps 741 mmHg 94%
    14:00 -2°C° 0.1 mm 2 mps 740 mmHg 93%
    15:00 -2°C° 0.1 mm 2 mps 740 mmHg 92%
    16:00 -2°C° 0.1 mm 3 mps 739 mmHg 92%
    17:00 -2°C° 0.1 mm 3 mps 739 mmHg 93%
    18:00 -4°C° 0.1 mm 3 mps 739 mmHg 93%
    19:00 -5°C° 0.1 mm 3 mps 738 mmHg 94%
    20:00 -5°C° 0.1 mm 3 mps 738 mmHg 95%
    21:00 -6°C° 0.1 mm 3 mps 737 mmHg 95%
    22:00 -6°C° 0.1 mm 3 mps 737 mmHg 96%
    23:00 -6°C° 0.1 mm 2 mps 736 mmHg 96%

    28 February, Thursday

    Time Temperature Precipitation Wind Pressure Humidity
    00:00 -6°C° 0.1 mm 2 mps 736 mmHg 96%
    01:00 -7°C° 0 mm 2 mps 735 mmHg 96%
    02:00 -8°C° 0 mm 2 mps 734 mmHg 96%
    03:00 -10°C° 0 mm 2 mps 734 mmHg 95%
    04:00 -9°C° 0 mm 2 mps 733 mmHg 95%
    05:00 -9°C° 0 mm 2 mps 733 mmHg 96%
    06:00 -8°C° 0 mm 2 mps 732 mmHg 96%
    07:00 -9°C° 0.1 mm 3 mps 732 mmHg 96%
    08:00 -8°C° 0.1 mm 3 mps 732 mmHg 96%
    09:00 -7°C° 0.1 mm 3 mps 731 mmHg 96%
    10:00 -6°C° 0.1 mm 3 mps 731 mmHg 96%
    11:00 -5°C° 0.1 mm 3 mps 730 mmHg 95%
    12:00 -4°C° 0.1 mm 3 mps 730 mmHg 95%
    13:00 -2°C° 0.1 mm 3 mps 730 mmHg 95%
    14:00 -2°C° 0.1 mm 3 mps 729 mmHg 94%
    15:00 -1°C° 0.1 mm 3 mps 729 mmHg 94%
    16:00 -1°C° 0.1 mm 3 mps 729 mmHg 95%
    17:00 -1°C° 0.1 mm 2 mps 729 mmHg 95%
    18:00 -2°C° 0.1 mm 2 mps 729 mmHg 96%
    19:00 -2°C° 0 mm 2 mps 728 mmHg 96%
    20:00 -3°C° 0 mm 2 mps 728 mmHg 96%
    21:00 -4°C° 0 mm 2 mps 728 mmHg 96%
    22:00 -2°C° 0 mm 1 mps 728 mmHg 96%
    23:00 -3°C° 0 mm 1 mps 728 mmHg 96%
    Show more